GRBBeta
1 60237U 24128C   26148.77319951  .00006129  00000-0  41875-3 0  9994
2 60237  61.9905 284.3720 0043256 130.6766 229.8099 15.06464472103344
Curium One
1 60242U 24128H   26148.79791903  .00011939  00000-0  68509-3 0  9991
2 60242  61.9791 274.4322 0042578 126.8997 233.6012 15.12176846103520
ROBUSTA-3A
1 60243U 24128J   26148.68586595  .00012229  00000-0  71683-3 0  9999
2 60243  61.9868 277.1927 0043922 124.4610 236.0647 15.11344265103473
CatSat
1 60246U 24125J   26148.67236620  .00065667  00000-0  92216-3 0  9998
2 60246  97.2108   0.9523 0021270 250.7778 109.1176 15.56236887104353
HYPERVIEW-1G (RS66S)
1 61772U 24199AP  26148.85483175  .00138195  00000-0  10991-2 0  9999
2 61772  97.2921  27.6674 0003687  10.2238 349.9099 15.70790228131635
AO-123
1 61781U 24199AY  26148.81059139  .00009970  00000-0  29163-3 0  9994
2 61781  97.3031  17.6583 0014548  25.6249 334.5713 15.35355248130953
JINJUSat 1B
1 63210U 25052A   26148.69668487  .00020242  00000-0  64015-3 0  9990
2 63210  97.4034  45.4333 0004665 131.9188 228.2452 15.32808610 67119
NUSHSAT 1
1 63211U 25052B   26148.70550888  .00026274  00000-0  77167-3 0  9991
2 63211  97.4011  45.9434 0004495 130.8260 229.3374 15.35104999 67153
TEVEL2-4
1 63213U 25052D   26148.68124973  .00023968  00000-0  73335-3 0  9992
2 63213  97.3938  45.0491 0003528 140.3779 219.7722 15.33831159 67123
TEVEL2-5
1 63214U 25052E   26148.69962565  .00023580  00000-0  72521-3 0  9997
2 63214  97.3928  45.0208 0003471 140.3980 219.7517 15.33670851 67122
TEVEL2-6
1 63215U 25052F   26148.64624072  .00023559  00000-0  72551-3 0  9990
2 63215  97.3933  44.9521 0003570 139.8705 220.2801 15.33629270 67114
TEVEL2-1
1 63217U 25052H   26148.66865836  .00022715  00000-0  71086-3 0  9994
2 63217  97.3909  44.6216 0003165 150.6260 209.5161 15.33125593 67101
TEVEL2-3
1 63218U 25052J   26148.66397624  .00023680  00000-0  73967-3 0  9992
2 63218  97.3912  44.6365 0003202 151.4818 208.6600 15.33176175 67101
TEVEL2-2
1 63219U 25052K   26148.66907352  .00022982  00000-0  71899-3 0  9994
2 63219  97.3907  44.6240 0003131 150.8682 209.2735 15.33132523 67106
TEVEL2-9
1 63237U 25052AD  26148.68699082  .00020217  00000-0  67173-3 0  9993
2 63237  97.3970  44.0585 0005423 191.1044 169.0079 15.31217216 67046
TEVEL2-7
1 63238U 25052AE  26148.65890152  .00020539  00000-0  68825-3 0  9994
2 63238  97.3974  43.9544 0005553 192.3174 167.7932 15.30937887 67039
TEVEL2-8
1 63239U 25052AF  26148.66694315  .00020842  00000-0  69869-3 0  9995
2 63239  97.3975  43.9402 0005569 192.5059 167.6045 15.30922045 67039
SPIRONE
1 66657U 25274H   26148.75853310  .00003185  00000-0  30779-3 0  9999
2 66657  97.7484  78.3288 0013900  80.3676 279.9113 14.93453945 27323
K-HERO
1 66660U 25274L   26148.76857758  .00002432  00000-0  23371-3 0  9998
2 66660  97.7491  78.4855 0015654  83.7336 276.5666 14.93875998 27337
SNUGLITE-III DURI
1 66661U 25274M   26148.75693051  .00002556  00000-0  24503-3 0  9997
2 66661  97.7488  78.4940 0016261  84.8421 275.4655 14.93925849 27338
SAKHACUBE-CHOLBON
1 67290U 25313AU  26148.66858785  .00013001  00000-0  53080-3 0  9996
2 67290  97.3943 223.9520 0010528  70.6399 289.5976 15.24480882 23007
RS95S (QMR-KWT-2)
1 67291U 25313AV  26148.67375939  .00018440  00000-0  72421-3 0  9995
2 67291  97.3942 224.0945 0010122  70.1259 290.1069 15.25706480 23018
Ten-Koh2
1 68261U 25241B   26148.47171900  .00009225  00000-0  39303-3 0  9996
2 68261  51.6638  53.4412 0006592  83.8236 276.3493 15.23628586 11906
JACK-002
1 68417U 26067B   26148.86353296  .00008552  00000-0  41038-3 0  9999
2 68417  97.4553 107.6980 0002512  39.0818 321.0597 15.19116562  9015
DISCO 2
1 68431U 26067R   26148.81438544  .00010749  00000-0  52041-3 0  9997
2 68431  97.4589 107.6397 0004230  76.7993 283.3713 15.18736327  9008
HADES-SA (SpinnyONE)
1 68446U 26067AG  26148.45558498  .00022066  00000-0  10761-2 0  9991
2 68446  97.4395 107.0599 0008859 130.8185 229.3819 15.18292837  8934
PARUS-6U1
1 68456U 26067AS  26148.86691810  .00006822  00000-0  34553-3 0  9991
2 68456  97.4539 107.5323 0007297 121.3380 238.8569 15.17283855  9007
SAL-E
1 68458U 26067AU  26148.66709854  .00009547  00000-0  47993-3 0  9998
2 68458  97.4466 107.2851 0007446 128.4198 231.7705 15.17436598  8975
FSI-SAT 2
1 68792U 26088A   26148.36277436  .00006323  00000-0  42937-3 0  9997
2 68792  97.5038 298.1253 0014845 170.5781 189.5728 15.06643966  5301
OrigamiSat 2
1 68795U 26088D   26147.93040222  .00003942  00000-0  25836-3 0  9996
2 68795  97.5091 297.7874 0016567 145.3253 214.9059 15.08166526  5241
ARICA 2
1 68796U 26088E   26148.85656116  .00005383  00000-0  35052-3 0  9996
2 68796  97.5031 298.6883 0016816 141.1790 219.0650 15.08239362  5380
WASEDA-SAT-ZERO-II
1 68797U 26088F   26148.85459716  .00007882  00000-0  50925-3 0  9996
2 68797  97.5028 298.6905 0016700 141.1913 219.0518 15.08378637  5383
MANGARO-II-Piscus
1 68798U 26088G   26148.84740205  .00005232  00000-0  33690-3 0  9999
2 68798  97.5036 298.7042 0020094 144.5869 215.6698 15.08612429  5385
IO-86
1 40931U          25360.30710720  .00000000  00000-0  12800-3 0    00
2 40931   6.0006 332.5373 0012733 338.8432   8.1437 14.79075515    01
LILIUM-4
1 71922C 26067AC  26089.50133053 -.00014632  00000+0 -74472-3 0    04
2 71922  97.4497  49.1617 0004341   5.9603 355.7042 15.16896692    16
